Wind_Speed
12 9 6 4 3 3 3 4 4 4 4 4 4 4 5 5 6 5 5 4 2 2 2 3 4 6 7 9 10 11 12 13 14 15 15 15 14 13 12 12 11 11 11 10 10 9 9 8 7 7 6 6 6 6 6 5 5 4 4 3 3 3 3 2 2 2 2 2 2 2 1 2 2 2 3 4 4 5 6 7 7 8 8 9 9
11 7 5 3 3 3 3 4 5 5 5 5 5 5 5 5 6 5 5 4 3 2 2 3 4 6 8 9 11 12 13 14 15 16 15 15 14 13 12 11 11 11 11 11 10 9 9 8 6 6 6 5 5 5 5 5 5 4 4 3 3 3 3 2 2 2 2 2 2 2 2 3 2 2 2 3 4 5 6 7 7 8 9 9 9
10 6 5 3 3 4 4 5 6 6 6 6 6 5 5 6 6 5 5 4 3 2 3 3 4 6 8 10 11 13 14 15 16 16 15 14 13 12 12 12 12 12 11 11 10 9 9 7 6 6 6 5 5 5 5 5 5 4 4 4 3 4 3 3 3 3 3 3 3 3 3 3 3 3 3 4 5 6 6 7 8 8 9 9 9
10 7 5 4 4 5 6 7 7 7 7 7 6 6 5 6 6 5 5 4 3 3 3 4 5 7 9 10 13 14 15 16 16 16 15 14 13 12 12 12 12 12 12 11 11 10 9 7 6 6 6 5 5 5 5 5 5 5 5 5 4 4 4 4 4 4 4 3 4 4 4 4 4 4 4 5 6 7 7 8 8 8 9 9 9
9 6 5 5 5 7 7 7 8 8 8 7 6 6 6 6 6 6 5 4 3 3 3 4 5 7 9 12 14 15 16 16 16 16 15 14 13 12 12 12 12 12 12 12 11 10 9 7 6 6 6 6 6 6 6 6 6 6 5 5 5 5 5 5 5 5 5 4 4 4 5 5 5 5 5 5 6 7 8 8 9 9 9 9 9
8 6 6 6 7 8 9 9 9 9 9 8 8 7 7 7 6 6 5 4 3 3 3 4 6 8 10 13 14 16 16 16 16 15 14 14 13 13 12 11 12 12 12 12 11 10 9 8 7 6 6 6 6 6 6 7 7 7 6 6 6 6 6 6 6 6 6 5 4 5 5 5 5 5 5 6 6 7 8 8 9 9 9 9 9
8 8 8 8 9 10 11 11 11 10 10 9 9 9 8 7 7 6 5 4 3 3 3 4 6 9 11 13 15 16 17 16 16 15 14 14 13 13 12 11 11 12 12 12 12 11 10 9 8 7 7 7 7 7 7 7 7 7 7 7 7 7 7 7 7 7 7 7 5 5 5 4 5 6 6 6 7 7 8 8 8 8 9 9 9
10 10 10 10 10 12 12 11 11 10 10 9 9 9 8 8 8 7 6 4 3 3 4 5 7 9 12 13 15 16 16 16 15 14 14 14 13 13 12 12 11 12 12 13 12 11 10 9 8 8 7 8 8 8 8 8 7 7 7 7 8 8 8 8 8 8 8 9 7 6 5 5 5 6 7 7 7 8 8 8 8 8 8 9 9
11 11 11 11 11 12 12 11 10 10 10 10 10 9 8 8 8 7 6 4 4 3 4 5 7 10 12 13 15 16 16 15 14 14 14 14 13 13 13 12 12 12 12 13 13 12 11 10 9 9 8 8 8 8 8 9 8 8 7 8 8 8 8 8 9 9 9 10 9 8 7 7 6 6 7 7 8 8 8 8 8 8 9 9 10
13 13 12 12 12 13 13 12 11 11 11 11 10 9 8 7 7 6 6 5 4 4 4 6 8 10 11 13 14 16 16 15 14 14 13 13 13 13 12 12 12 12 13 13 13 12 11 11 10 10 9 8 8 7 8 9 9 9 9 9 8 8 9 9 10 10 10 10 9 8 8 7 7 7 7 8 8 9 9 9 8 8 9 9 10
14 14 13 14 15 16 15 14 13 12 11 10 10 9 8 7 7 6 5 4 4 4 5 6 8 9 11 12 14 15 15 15 14 14 13 13 13 13 12 12 13 13 13 13 13 13 12 11 11 11 10 9 8 8 8 9 9 9 10 9 9 9 9 10 11 10 11 11 9 9 9 8 8 8 8 8 9 9 9 9 9 9 9 10 10
16 15 15 16 18 19 18 17 15 12 11 10 10 10 9 8 7 6 5 4 4 4 5 6 7 9 10 12 13 14 15 15 14 14 14 14 13 13 13 12 12 13 13 14 14 13 13 12 12 12 11 11 10 9 9 9 9 9 10 10 10 10 10 11 11 8 9 10 9 9 9 9 8 9 9 9 9 9 9 9 9 9 9 10 11
17 17 18 19 19 20 19 19 17 14 12 12 11 10 9 8 7 6 5 4 4 4 5 6 7 8 10 11 12 13 15 15 14 14 14 14 14 13 13 13 13 13 13 14 14 13 13 13 12 12 12 12 12 11 10 10 10 10 10 10 11 11 11 10 9 6 5 8 9 9 10 9 9 10 10 10 10 10 10 10 10 10 10 11 11
19 19 20 20 20 20 20 20 17 14 14 13 12 11 10 8 7 6 5 4 3 4 4 5 6 8 9 10 12 13 14 15 15 15 15 14 14 14 13 13 13 13 13 14 14 14 13 13 12 12 12 12 12 12 12 11 11 11 11 11 11 11 10 8 8 7 5 8 11 11 11 10 10 10 10 11 11 11 11 11 11 11 11 11 12
21 21 21 20 21 20 19 18 16 15 15 15 13 12 10 8 7 6 5 4 3 3 4 5 7 8 9 10 11 13 14 14 15 15 15 15 14 14 14 14 13 13 14 14 14 14 14 13 12 12 11 12 12 12 12 12 12 12 13 12 10 10 10 9 10 8 7 10 12 12 12 11 10 10 11 11 12 12 12 12 12 12 12 12 12
24 22 22 23 22 20 19 17 17 17 16 14 13 11 10 8 7 6 5 5 4 3 4 5 7 8 8 10 11 12 13 15 15 15 15 15 15 14 14 14 14 14 14 14 14 15 15 14 14 13 12 12 12 12 12 12 13 13 13 12 11 11 11 11 10 8 8 11 12 12 13 12 11 11 11 12 13 13 13 13 12 13 13 13 13
25 24 24 24 22 20 20 20 19 17 15 14 13 11 10 9 7 6 5 4 3 3 4 5 6 7 8 9 10 11 14 16 16 16 16 16 15 14 14 14 14 14 14 14 14 15 15 15 15 14 14 13 12 12 12 12 13 12 13 13 12 12 12 12 11 10 10 12 12 12 13 13 13 12 12 12 13 14 14 13 13 13 14 14 14
27 26 26 25 22 22 22 22 20 18 17 15 14 13 11 9 8 6 5 3 3 3 4 4 5 6 8 8 9 12 14 16 17 16 16 16 16 15 15 14 14 14 14 14 15 15 15 15 15 16 15 15 14 13 13 12 12 12 12 13 13 12 12 11 12 12 13 13 13 13 13 14 14 13 13 13 14 14 14 14 14 14 14 14 14
30 27 26 25 25 24 23 22 20 19 17 16 15 13 11 9 7 5 4 3 2 3 3 3 5 6 6 7 9 12 15 17 18 17 17 17 16 16 15 15 14 14 14 14 15 16 16 16 15 16 16 16 15 14 14 13 12 12 12 13 12 13 12 12 12 13 14 14 14 14 14 14 14 14 14 15 15 14 14 14 14 15 14 15 15
31 30 29 27 27 26 24 22 20 19 17 16 15 12 11 9 7 5 4 2 2 2 2 2 4 4 5 7 10 13 15 17 18 18 18 17 17 17 16 16 15 15 15 15 15 16 16 17 16 16 16 16 16 15 14 14 13 13 13 13 13 13 13 12 12 12 13 15 15 15 15 15 15 15 15 15 15 15 14 14 14 15 15 15 15
32 31 31 29 29 27 25 23 21 19 18 16 14 12 10 8 7 5 3 2 1 1 0 1 2 3 5 7 10 12 14 16 18 19 19 18 18 18 18 17 16 16 16 16 16 16 17 17 17 16 16 16 16 15 15 14 14 13 13 13 13 13 13 12 12 12 14 15 15 15 16 16 16 16 15 15 15 16 15 14 15 14 15 15 15
34 33 33 32 30 29 26 24 22 19 17 15 14 12 10 8 7 5 3 2 1 1 1 1 2 3 5 7 9 12 14 16 18 19 19 19 19 19 19 18 18 17 17 17 17 17 17 18 18 17 16 16 15 15 15 13 13 13 13 13 13 13 13 13 13 14 15 15 15 16 17 17 17 16 16 15 16 16 15 15 15 15 15 15 15
37 36 36 35 33 31 29 25 22 19 17 16 14 12 10 8 7 5 3 2 2 3 2 2 2 3 4 6 8 11 13 15 17 19 20 20 20 20 20 20 19 18 18 18 18 17 17 18 18 18 18 17 15 15 14 14 13 12 13 13 14 14 13 13 14 16 16 16 16 17 17 18 18 18 17 16 16 16 15 15 15 15 15 14 14
40 40 39 38 37 34 31 27 22 19 18 16 15 13 11 9 7 5 3 3 4 3 2 3 3 3 4 5 7 10 12 15 16 18 20 21 21 21 22 21 21 20 19 18 18 18 18 18 18 18 18 18 17 15 14 15 14 12 13 14 15 15 13 13 15 16 18 18 17 17 18 18 18 19 18 17 17 16 15 15 15 14 15 14 14
42 42 42 42 40 38 34 30 25 21 20 17 16 14 11 9 7 5 4 5 4 3 3 4 4 4 4 5 6 9 12 14 16 17 19 21 22 22 23 23 22 22 21 20 19 18 18 18 18 18 18 19 19 18 14 14 13 13 15 16 17 17 15 16 17 17 18 19 18 18 18 18 18 18 18 17 17 17 16 16 15 14 15 14 14
44 44 45 45 43 40 37 32 28 25 22 19 17 15 13 10 8 7 5 5 5 5 4 4 5 5 4 5 6 8 11 13 15 17 18 20 22 23 23 24 24 23 23 21 20 19 18 18 18 18 19 19 20 21 16 13 14 16 18 18 19 19 18 18 18 18 19 19 19 18 18 17 17 18 18 18 18 17 17 16 15 15 15 15 14
47 46 46 47 45 43 39 34 31 27 24 21 18 16 14 12 10 9 7 6 6 6 5 5 5 5 5 5 6 7 10 12 13 16 18 20 21 23 24 24 25 25 24 22 21 20 19 19 18 18 18 19 20 21 18 15 16 19 20 20 21 19 18 19 18 18 19 19 19 19 18 17 16 17 17 17 17 17 17 17 16 15 15 15 15
50 49 48 49 47 44 40 35 30 27 26 24 21 20 17 14 13 11 9 8 7 6 7 7 6 6 6 6 7 8 9 11 13 15 17 19 21 22 24 25 25 26 25 24 22 21 20 20 19 18 17 18 20 20 18 17 16 19 21 20 19 18 19 19 17 17 19 19 20 19 18 17 16 16 16 17 17 17 17 17 16 15 15 15 15
52 51 49 50 48 46 41 35 31 27 28 27 25 22 19 17 15 13 11 9 7 7 7 7 7 6 7 7 8 8 10 11 13 15 17 19 21 22 24 25 26 26 26 25 23 22 22 21 20 19 19 19 21 20 18 17 16 18 20 20 19 18 20 20 17 18 20 20 20 20 20 18 16 16 16 16 17 18 17 17 16 15 15 15 15
54 53 51 53 52 48 42 36 32 30 30 29 27 24 20 18 16 15 13 11 9 8 8 7 8 8 8 9 9 9 10 12 14 16 17 19 21 22 23 25 26 26 26 25 24 23 23 23 21 20 19 20 20 19 19 18 17 17 20 22 22 20 21 21 20 22 22 21 21 21 20 19 17 16 16 16 17 18 18 17 16 15 14 14 15
49 55 56 56 54 49 43 37 34 33 32 31 28 24 21 19 17 16 15 13 11 9 8 8 8 9 9 10 11 11 11 13 14 16 18 20 21 23 24 25 26 26 26 26 24 24 24 23 22 20 19 20 19 18 20 19 18 19 21 22 22 22 22 22 23 23 22 22 22 21 20 18 17 17 16 16 17 19 18 17 16 16 15 14 15
43 56 60 59 56 51 43 38 37 36 34 31 27 24 22 20 19 18 17 14 12 10 9 8 8 9 11 11 12 12 12 13 15 17 19 21 22 24 25 25 26 26 26 26 24 24 24 24 22 20 19 20 18 18 20 20 20 21 21 21 21 22 21 21 22 22 21 21 21 20 19 17 17 18 17 17 17 17 18 17 16 16 16 15 15
40 54 60 60 56 50 43 38 38 35 32 28 25 24 22 21 20 20 18 14 12 11 10 9 10 10 12 13 13 14 13 13 15 17 19 22 23 25 25 25 25 26 26 25 24 23 24 23 22 20 19 19 19 19 21 22 22 21 21 21 21 21 21 22 22 21 21 21 19 19 18 17 17 18 18 17 17 16 17 17 16 16 16 16 16
40 51 57 59 55 48 43 40 37 32 28 25 25 23 21 22 21 21 18 14 13 12 11 10 11 11 13 14 14 15 15 13 15 17 19 22 24 26 26 25 24 25 26 25 24 23 23 23 22 20 18 19 20 20 19 21 22 22 22 22 21 22 22 23 23 23 22 20 19 19 19 18 17 18 18 17 17 17 17 18 17 17 17 17 16
40 50 54 54 53 50 47 43 37 30 27 25 24 22 21 23 22 21 17 14 14 13 12 11 12 13 13 15 15 17 16 14 15 17 20 23 25 26 25 24 23 24 25 25 23 23 22 22 21 19 18 19 20 21 20 20 21 21 22 22 23 24 24 23 23 23 22 20 19 19 20 20 18 17 17 18 17 17 17 18 18 18 18 18 17
40 45 50 50 51 52 50 46 39 33 30 28 25 24 23 24 22 20 16 14 15 14 12 11 12 13 13 15 16 17 16 15 16 18 21 24 25 25 24 23 23 23 24 24 23 22 22 22 21 19 18 19 21 22 22 21 20 21 21 22 24 24 23 23 23 22 22 21 19 19 21 22 22 20 18 18 17 16 17 18 19 19 19 19 18
40 40 46 49 50 51 50 46 41 37 33 30 28 27 25 25 22 18 16 15 15 13 11 12 12 13 13 15 16 16 15 15 17 19 22 24 24 23 23 22 22 23 24 23 22 22 23 22 21 20 19 20 21 22 23 22 21 22 21 22 23 23 23 23 23 22 22 22 21 21 20 21 23 21 18 17 16 17 18 18 20 20 20 20 20
40 39 45 50 49 49 49 46 43 41 36 32 30 28 26 25 21 18 17 17 15 12 11 12 13 13 14 16 16 15 15 15 17 20 22 24 24 23 23 22 21 22 23 23 21 21 22 22 22 21 20 21 21 22 25 25 25 25 24 23 23 23 24 23 23 22 22 23 23 23 21 20 21 20 17 16 16 17 18 20 22 21 20 20 19
43 42 48 51 50 51 50 47 44 42 39 33 30 28 27 24 21 19 19 17 14 11 12 13 13 14 15 16 16 15 15 16 18 21 24 25 24 22 22 22 21 22 22 22 21 21 22 22 22 21 21 21 22 23 25 26 27 28 27 27 25 24 24 23 23 22 22 23 23 22 22 21 20 18 17 16 16 18 20 22 22 21 20 19 19
45 46 49 50 52 53 51 48 45 43 41 35 30 27 25 24 22 21 20 18 14 12 13 13 14 15 16 16 16 16 15 16 20 23 25 26 25 23 22 22 22 21 21 20 20 21 21 22 21 21 21 21 23 24 25 27 27 28 28 27 26 25 24 23 24 23 23 23 22 22 23 22 20 17 17 18 18 20 21 21 21 20 19 18 18
44 46 49 49 50 54 52 49 46 44 40 34 29 28 26 25 24 23 22 19 16 14 14 14 16 17 17 17 16 16 16 18 22 24 24 26 25 23 22 22 21 21 20 19 20 21 21 21 21 21 21 22 23 24 26 26 27 27 27 26 25 25 25 25 25 25 24 24 23 22 23 23 21 18 17 18 20 21 21 21 20 18 17 17 18
41 42 46 48 49 54 54 49 46 44 39 34 32 34 31 27 26 25 24 21 17 15 15 15 16 18 18 17 16 17 17 19 23 24 24 26 25 23 22 22 21 20 19 19 19 20 21 21 21 21 21 22 24 25 26 26 26 27 26 26 25 24 25 25 26 25 24 24 24 23 23 23 22 19 16 17 19 19 20 20 18 17 17 18 18
38 37 41 46 48 53 54 48 46 43 38 36 36 37 34 29 27 26 24 22 18 16 16 16 17 19 18 18 17 17 18 20 24 25 25 26 25 23 22 21 20 19 19 18 19 20 21 21 21 21 21 23 25 26 26 26 26 26 26 25 25 24 24 25 26 25 23 24 25 23 23 24 23 20 16 17 19 19 19 19 18 17 17 17 18
37 37 38 43 46 51 54 49 47 44 39 37 37 36 32 29 27 26 25 22 20 18 17 17 18 19 19 18 19 19 19 21 25 26 26 27 25 24 22 21 20 19 19 18 19 19 20 21 21 22 22 23 25 26 27 27 26 27 26 25 25 24 24 25 26 25 24 25 24 23 24 25 24 22 19 19 20 20 20 21 20 19 18 16 17
38 37 37 43 47 50 54 51 48 47 43 40 37 33 30 28 27 26 25 24 22 20 19 19 20 20 20 20 20 20 19 21 26 27 28 28 26 24 22 21 21 20 19 19 19 19 20 21 22 23 23 24 26 26 27 28 28 28 27 26 25 24 24 25 26 26 25 25 25 25 26 26 25 22 21 20 20 21 22 22 21 20 19 17 17
41 38 36 44 49 49 52 51 48 46 44 41 36 32 30 29 28 27 27 26 25 23 21 20 21 22 21 21 21 20 20 22 26 29 29 29 27 24 22 21 21 21 20 19 19 19 20 21 22 24 24 25 26 26 27 28 29 29 28 26 25 24 24 25 26 27 27 26 26 27 26 26 25 24 22 20 20 21 23 23 22 21 20 18 18
44 39 37 47 51 49 50 50 47 44 40 39 35 32 32 31 30 30 30 29 26 24 23 22 23 23 23 22 22 20 20 21 26 29 30 30 28 25 22 21 21 21 21 20 20 20 20 21 23 25 26 26 27 27 27 28 29 29 28 26 25 25 25 26 26 26 27 27 27 27 25 25 26 26 23 20 19 21 23 23 23 22 20 19 19
47 41 38 48 53 50 51 51 47 43 37 36 34 34 35 33 32 32 32 31 28 27 25 24 24 25 25 23 22 21 20 21 25 29 31 30 29 26 23 21 21 21 21 21 21 21 21 21 23 25 27 27 28 29 28 28 28 28 28 28 27 26 25 25 26 26 27 27 27 28 26 26 27 27 24 22 21 22 23 24 24 23 20 19 19
52 45 40 48 55 53 52 52 49 44 40 38 37 38 37 36 35 34 34 32 30 29 27 26 26 26 26 25 23 22 21 21 25 29 31 30 28 26 24 22 21 22 22 22 22 22 22 22 23 25 27 28 30 31 30 29 28 28 29 29 27 27 26 26 26 26 27 27 27 28 27 27 28 26 25 24 23 23 23 25 25 24 21 19 18
55 51 45 45 53 55 53 52 50 46 43 42 41 41 39 38 37 36 35 34 32 31 29 28 27 26 26 26 24 23 22 22 25 29 30 29 28 27 25 23 22 22 22 22 22 22 22 22 23 25 27 29 31 31 32 31 28 27 28 28 28 28 28 28 27 26 27 27 28 29 28 28 28 26 25 24 23 23 24 26 26 24 21 19 17
51 52 50 46 49 55 55 52 50 48 46 45 44 43 42 39 39 38 36 34 34 33 31 29 28 27 27 26 25 24 23 23 25 29 29 28 27 27 26 24 23 23 23 23 23 23 23 23 24 25 27 29 31 32 33 33 31 27 27 27 28 30 30 28 26 26 27 26 28 28 26 26 26 25 25 25 24 24 25 28 27 23 20 19 16
Wind_Direction
246 251 255 261 273 268 253 237 223 213 202 198 194 211 230 239 237 234 225 209 187 152 85 54 41 35 34 30 25 21 16 13 10 6 1 357 353 350 351 356 1 2 2 1 359 356 353 349 344 343 346 348 343 337 332 325 318 312 309 309 304 304 308 308 312 314 315 310 298 301 314 313 313 321 325 326 332 338 336 333 333 335 338 342 345
246 249 251 245 256 231 217 214 202 203 200 204 209 223 235 239 235 227 217 192 167 133 88 61 44 37 33 28 24 19 15 11 8 4 360 356 351 350 353 0 4 4 6 6 3 0 357 352 345 342 345 345 340 335 331 326 318 313 312 311 309 304 308 312 310 312 318 314 301 304 322 315 307 315 318 318 327 334 334 336 340 344 348 350 352
248 247 245 230 229 204 202 204 200 205 209 214 216 226 232 232 229 221 208 183 162 128 93 66 46 37 31 26 22 18 14 10 7 4 359 354 351 352 358 4 6 8 10 9 8 5 2 356 347 342 341 339 335 332 331 331 328 325 326 328 318 312 316 317 317 316 322 321 310 312 318 311 313 327 329 329 334 337 339 345 348 353 356 354 353
244 240 230 220 220 204 204 203 204 209 214 217 216 221 223 224 221 216 204 182 161 130 97 66 47 37 29 25 21 17 13 10 8 3 359 354 353 357 3 7 9 12 14 15 14 11 8 1 352 343 340 338 332 330 332 333 335 338 339 340 329 322 326 326 325 318 321 318 317 325 316 309 321 336 340 338 337 339 344 349 354 359 359 356 354
236 233 217 211 213 201 202 200 202 204 207 208 209 213 212 216 215 214 205 186 161 130 95 67 47 36 29 25 21 17 14 11 7 2 359 356 357 3 6 9 12 16 18 19 19 17 13 6 358 348 343 340 335 332 333 336 339 345 348 345 333 329 331 331 328 320 320 318 321 327 313 312 325 335 343 338 336 339 344 349 355 359 360 359 358
226 224 209 202 207 199 198 198 199 203 209 211 210 209 206 210 210 211 205 188 158 126 94 66 45 37 31 27 22 18 15 11 7 3 0 359 1 4 7 11 15 19 22 24 24 22 17 12 4 354 349 345 341 334 333 339 342 346 348 344 339 338 335 331 331 326 320 317 319 315 308 315 321 331 340 335 335 338 343 349 353 357 360 0 1
216 214 206 201 207 204 202 203 206 211 217 220 217 213 211 211 211 212 206 188 154 122 89 63 44 37 32 27 22 20 17 12 7 4 3 3 4 5 8 12 17 22 25 27 27 25 21 16 8 1 357 354 347 339 335 338 344 347 344 339 342 341 335 332 333 331 322 315 312 305 306 315 320 329 333 331 333 336 340 345 350 355 358 359 359
210 209 208 206 212 211 209 208 206 210 214 215 212 208 206 209 212 211 204 185 147 118 85 60 45 38 33 28 24 21 16 12 8 7 6 6 7 6 9 11 16 23 27 29 30 27 23 18 12 9 4 1 354 344 339 336 339 342 338 334 338 336 329 331 330 328 321 317 315 314 316 316 321 329 326 328 330 332 337 340 347 354 356 356 355
208 211 212 210 213 211 206 203 200 202 206 207 205 199 197 199 203 199 194 174 141 111 82 61 48 41 35 29 25 21 15 12 10 11 10 10 11 10 11 11 16 22 27 29 31 29 23 19 16 13 10 9 5 353 342 336 337 336 333 330 330 327 323 326 324 320 319 317 315 316 319 318 322 325 322 323 326 327 332 336 343 349 351 351 351
211 215 216 211 207 204 197 195 194 198 200 202 200 193 191 193 196 191 182 162 135 107 80 63 52 43 36 30 25 20 15 14 14 16 14 15 15 14 14 13 17 21 25 27 29 28 23 19 17 15 13 12 11 2 347 341 340 333 329 325 323 321 321 322 319 318 317 317 320 321 318 317 320 321 320 319 320 322 326 331 336 341 343 344 347
214 218 216 209 202 197 191 189 188 192 195 200 202 197 194 195 197 189 177 156 131 109 83 66 55 45 37 31 26 20 17 17 18 20 19 20 19 18 17 16 18 21 24 25 26 24 21 17 14 13 12 10 10 6 354 348 343 334 327 321 319 320 322 322 327 327 317 314 319 328 323 316 318 318 316 314 316 318 321 326 330 333 334 337 341
214 215 210 205 201 196 192 190 188 191 198 204 206 202 196 194 192 186 176 157 136 112 86 69 57 47 39 32 26 20 20 21 22 24 24 24 23 22 20 18 19 21 23 24 23 21 17 14 11 8 7 6 5 5 359 353 347 340 331 323 324 330 334 336 344 339 326 328 320 324 328 320 318 317 315 313 314 314 316 319 320 322 324 329 335
212 211 208 206 203 199 198 197 196 200 207 208 203 197 191 188 186 183 178 165 147 114 89 73 59 49 41 32 26 22 23 23 27 29 27 27 27 25 22 20 20 20 21 23 23 19 15 11 8 3 0 359 358 359 356 354 350 346 339 335 341 345 347 350 349 327 340 8 343 328 330 324 319 315 314 311 312 311 311 311 312 315 318 323 328
209 209 210 211 209 205 205 203 201 203 204 203 198 192 185 185 184 184 184 173 149 115 90 74 60 48 40 32 26 23 24 25 30 33 31 30 29 27 24 22 20 18 18 20 21 19 15 10 6 0 355 353 350 351 349 349 349 347 347 348 350 345 345 350 343 323 332 359 348 339 333 327 321 316 313 310 309 309 309 309 310 311 313 317 320
205 208 211 211 213 211 208 203 198 196 195 195 194 190 183 185 186 187 186 173 147 118 92 71 57 48 38 30 26 24 24 26 31 34 33 32 31 28 26 24 20 17 14 15 18 19 17 10 5 359 353 349 344 345 343 343 343 345 351 349 342 336 341 343 340 338 328 331 341 344 339 333 325 319 315 311 307 306 307 308 309 308 309 311 314
202 206 210 210 213 209 204 199 193 190 188 188 192 190 186 188 189 191 186 171 150 116 87 66 55 46 36 29 25 23 24 26 30 33 33 32 31 29 26 24 20 15 12 11 12 15 17 12 7 359 353 348 342 340 338 338 337 342 349 340 332 338 343 340 338 339 329 332 340 341 339 337 331 326 320 313 307 304 305 305 306 305 306 306 309
204 205 208 211 210 205 200 196 194 193 193 194 199 196 190 191 193 194 187 170 145 105 75 61 52 44 34 27 22 22 24 26 28 30 32 32 30 28 26 23 19 14 10 8 8 10 14 14 11 3 357 350 345 341 337 335 333 340 343 330 330 339 338 336 337 334 334 339 338 336 337 336 333 330 326 319 310 305 303 303 302 301 302 303 305
203 205 208 209 204 201 200 198 197 197 198 199 201 199 191 191 192 192 189 171 131 94 69 56 47 41 32 24 20 22 24 24 25 27 29 29 27 25 23 21 17 11 8 5 4 5 8 11 12 9 3 357 351 345 339 335 333 340 334 321 326 330 327 330 332 331 335 337 334 337 338 335 332 330 328 323 315 309 305 302 300 299 300 301 302
201 203 202 200 196 198 200 199 197 193 192 191 192 193 187 186 188 186 185 169 120 86 66 54 41 35 27 21 20 22 23 23 23 24 26 26 24 22 20 18 14 8 3 1 0 360 2 5 9 11 8 3 357 351 345 338 339 342 326 317 323 323 321 322 324 327 330 332 332 334 334 332 332 331 330 325 319 315 311 306 301 299 299 299 301
201 201 194 192 194 196 197 196 192 187 185 184 185 187 184 183 185 184 180 166 120 89 57 45 35 26 19 20 22 21 21 22 23 23 23 22 21 18 16 14 10 5 359 356 355 354 355 358 4 9 9 6 1 357 350 343 347 344 325 321 325 322 322 320 322 325 327 329 330 330 330 331 333 334 333 329 323 319 317 313 305 302 300 300 302
200 200 191 190 194 193 191 189 186 184 182 181 182 184 181 181 184 181 178 173 123 102 5 20 17 12 16 20 20 18 18 20 22 21 20 19 17 15 13 11 7 2 356 352 349 348 348 351 357 1 5 5 1 357 353 353 355 345 333 333 327 325 329 328 328 329 328 328 329 330 330 331 333 333 332 332 328 323 321 316 310 306 303 302 304
200 199 193 191 192 189 187 186 185 183 183 183 186 189 184 182 187 183 179 185 199 238 252 295 334 353 11 17 16 15 14 16 19 19 17 15 14 12 10 8 5 360 354 350 346 343 342 343 348 353 358 0 358 353 350 360 3 347 343 339 328 327 328 327 329 328 326 325 328 329 329 330 330 329 329 330 328 326 324 318 313 310 306 305 306
202 200 196 195 192 188 187 186 185 184 185 187 190 192 188 186 188 185 183 215 238 241 250 282 314 333 357 11 11 10 11 12 15 15 13 12 10 8 6 4 3 359 354 349 344 341 338 338 341 346 350 352 352 345 345 0 4 351 343 333 330 333 329 327 328 325 322 321 324 326 328 330 327 325 326 327 326 327 328 320 315 312 308 307 307
203 203 199 197 195 191 188 184 182 183 184 186 190 191 188 187 188 186 193 225 238 248 271 288 299 312 336 357 4 5 7 8 9 10 9 8 6 4 3 1 0 358 354 349 345 340 336 335 335 340 343 345 343 334 344 358 354 346 337 328 332 334 331 333 331 325 321 319 321 324 326 328 325 323 324 326 325 327 328 322 319 315 310 309 310
202 204 202 200 197 194 190 184 180 184 185 186 190 191 191 191 191 191 202 226 239 253 272 285 291 299 317 336 354 359 1 3 2 4 5 4 3 1 359 358 358 356 353 349 346 341 337 334 333 336 338 340 336 326 339 357 351 348 340 335 337 333 327 328 329 325 321 319 320 322 323 324 323 320 323 325 324 325 324 321 319 315 311 310 311
204 204 205 203 199 196 192 185 183 185 186 189 193 194 195 196 198 200 209 226 241 253 264 276 284 292 303 322 344 352 352 354 356 357 360 0 359 357 355 355 355 354 352 348 346 342 338 335 333 334 335 338 333 323 333 352 350 345 338 335 336 334 329 328 329 325 321 321 321 320 320 321 320 319 322 324 323 322 320 317 316 314 311 311 313
206 204 207 207 201 196 192 185 184 185 186 190 195 199 200 202 205 205 214 226 237 252 264 270 281 296 306 323 335 342 343 344 349 351 354 356 355 353 352 352 352 351 349 347 344 341 339 337 334 334 334 335 327 320 333 348 345 338 330 328 331 332 330 328 329 327 324 323 322 321 320 320 318 318 322 322 321 321 317 314 314 313 311 312 315
210 205 206 208 203 197 192 186 184 185 189 191 194 201 202 203 210 210 215 228 236 247 260 274 286 304 317 324 328 330 331 334 341 345 349 351 350 350 349 349 349 348 347 345 342 340 339 337 335 332 331 330 322 320 337 347 344 335 324 322 328 333 332 329 329 329 330 328 325 322 319 319 318 318 321 321 320 318 315 312 312 312 312 313 317
214 206 206 208 204 198 192 186 185 189 195 195 193 201 203 202 211 216 217 226 238 248 259 277 294 307 319 320 320 321 321 326 335 340 344 347 346 346 345 346 346 345 344 343 340 339 337 336 334 332 331 329 322 324 339 343 339 330 320 322 330 331 332 333 332 331 332 330 328 324 320 318 319 320 320 320 318 315 312 310 310 311 312 314 316
218 205 206 208 205 201 193 186 188 192 198 200 196 199 204 204 209 218 220 224 234 250 263 279 297 307 314 315 315 316 316 322 330 334 338 341 342 341 341 342 343 343 342 341 339 337 336 335 334 332 330 326 322 328 336 336 330 321 318 324 330 327 326 328 326 327 328 326 325 323 321 319 320 321 320 320 318 313 309 308 309 310 312 314 315
222 209 208 208 205 204 197 190 191 195 200 202 200 200 205 209 211 218 222 224 231 246 264 282 298 305 308 311 314 317 317 320 326 330 333 336 337 336 336 336 339 340 339 338 337 335 334 333 332 332 329 323 325 332 334 330 321 318 322 325 328 327 327 326 324 324 324 322 320 319 320 320 321 321 321 321 317 311 308 307 309 311 313 314 317
222 213 213 210 205 206 201 194 196 198 201 203 203 203 206 212 215 220 224 226 233 243 262 282 294 298 300 304 312 317 318 319 322 326 328 331 333 333 332 332 334 336 337 336 335 333 332 331 330 331 329 325 328 334 332 326 319 321 326 327 327 328 327 325 322 322 322 319 318 317 317 320 321 322 322 320 315 309 306 307 310 311 313 315 318
220 216 217 211 206 207 203 199 201 202 203 205 208 208 208 214 219 223 226 228 236 246 261 280 290 290 290 297 307 313 317 317 317 321 325 328 331 331 329 329 330 332 334 334 333 331 329 328 327 328 330 328 330 333 332 328 326 328 330 329 328 327 324 320 321 323 323 322 322 321 318 318 320 320 321 318 314 309 305 306 309 310 312 315 319
217 218 219 212 208 209 209 205 203 203 205 209 214 213 212 218 222 226 228 232 240 251 262 275 284 284 286 292 302 309 313 314 313 318 324 327 328 327 326 326 328 329 331 332 331 329 326 324 323 325 330 329 328 332 333 331 332 333 331 330 327 326 324 321 322 324 324 325 325 322 320 319 318 317 320 318 313 308 306 307 308 310 311 314 318
214 219 220 213 211 212 215 212 205 203 207 211 217 217 218 222 226 230 232 236 245 254 264 271 279 282 286 294 301 307 309 309 312 317 323 326 324 323 322 323 326 326 327 330 330 327 324 321 319 322 328 326 325 331 334 331 329 329 328 326 325 324 324 322 322 321 321 322 321 320 319 319 317 313 314 315 310 305 305 306 308 310 311 313 315
216 221 219 213 213 215 216 215 207 202 206 211 217 219 222 227 230 233 235 238 246 254 261 270 279 283 288 295 301 304 305 306 310 318 325 325 323 321 320 321 324 324 325 327 328 326 322 319 316 319 326 323 323 332 335 329 324 324 325 325 323 322 323 322 320 320 320 319 316 317 318 319 317 313 310 308 305 301 302 304 307 309 310 311 312
218 222 216 210 213 216 216 214 207 202 204 209 215 220 223 229 233 236 236 238 244 250 259 270 277 283 286 292 299 300 300 302 310 319 327 328 324 320 319 320 323 323 324 326 327 325 321 318 315 317 323 322 324 330 329 325 324 325 324 323 320 320 322 321 319 320 320 319 318 317 317 317 315 313 309 306 302 299 300 303 306 307 307 308 309
218 218 211 209 214 217 217 214 208 203 202 206 213 219 224 229 233 235 237 238 242 248 257 269 274 279 282 289 296 295 293 299 308 318 326 330 326 320 319 320 323 323 323 325 325 323 320 317 316 316 321 322 324 327 325 323 325 326 324 321 320 320 321 320 320 321 320 319 320 317 315 314 314 313 308 305 301 299 300 303 305 305 305 306 308
219 216 210 212 217 218 218 213 209 206 203 205 212 218 224 228 232 234 238 238 240 247 256 266 272 273 277 288 294 289 289 296 305 314 321 328 326 321 320 321 324 324 323 324 324 322 320 318 317 316 320 323 325 325 324 323 323 324 323 321 321 321 320 319 320 321 318 316 317 315 312 312 313 311 307 303 299 298 301 303 304 304 304 305 306
222 223 219 219 219 218 218 212 208 210 208 206 210 217 223 227 231 234 238 238 238 245 254 263 268 270 276 287 290 285 287 295 305 313 318 325 326 323 322 323 324 324 323 324 324 323 321 319 317 316 320 323 324 324 323 322 323 322 320 320 321 320 319 320 319 319 318 313 311 311 310 312 311 306 304 303 300 300 303 304 303 304 303 302 306
224 228 229 228 224 218 218 213 210 213 212 207 209 215 219 224 229 233 235 237 237 243 253 261 265 267 275 284 284 281 285 296 307 314 319 325 326 324 323 324 324 324 324 325 324 323 322 320 318 317 320 322 323 323 322 322 323 321 319 320 320 318 318 318 316 318 319 313 309 308 308 311 311 305 301 301 301 302 304 304 302 303 302 302 307
227 230 232 232 229 221 216 213 211 215 213 208 211 215 216 220 226 231 234 235 237 243 252 258 262 265 272 278 277 277 282 298 312 316 320 325 326 325 325 325 324 324 325 326 326 324 322 321 318 318 321 322 321 321 320 321 322 320 318 318 318 318 317 315 313 316 316 310 307 306 305 308 311 309 304 302 304 304 305 305 302 302 301 303 308
234 235 233 231 231 221 213 210 211 213 212 210 215 219 220 222 225 230 234 236 238 242 251 256 259 263 268 273 271 273 280 298 315 319 321 325 327 326 325 324 323 323 325 326 327 325 323 321 318 319 321 321 320 319 319 320 321 319 316 316 316 315 314 311 311 314 314 309 308 305 303 306 310 312 311 309 307 305 306 306 303 302 302 304 309
238 239 235 231 229 218 210 209 210 209 207 210 217 220 221 223 226 231 234 237 239 242 249 254 258 261 264 267 266 268 277 298 316 320 321 326 327 327 325 323 321 321 324 326 327 326 323 322 319 319 320 320 319 319 319 320 320 318 315 316 315 312 311 309 310 314 313 308 307 305 302 305 309 312 313 310 307 306 308 307 303 303 304 305 307
239 239 239 234 231 221 212 211 210 207 205 209 215 216 217 221 226 232 234 236 238 241 245 249 255 258 260 261 262 265 275 296 315 320 322 325 327 326 323 322 321 321 323 325 326 326 324 322 319 318 320 320 319 320 321 322 321 317 316 317 314 311 310 309 310 313 311 306 305 304 303 304 306 309 311 308 305 305 307 304 302 303 304 304 304
240 239 239 234 230 221 214 212 211 207 206 208 210 212 216 221 225 230 233 235 237 239 243 247 252 254 255 256 258 263 273 294 314 320 321 323 325 325 322 320 319 319 323 324 325 326 325 323 319 319 321 320 320 321 322 322 321 318 317 317 313 310 309 308 309 311 310 309 307 307 306 303 304 307 307 305 302 303 304 302 301 302 301 300 302
238 238 238 231 224 214 209 209 207 205 205 206 208 212 219 223 226 230 233 235 237 241 244 247 251 251 250 252 256 262 272 291 313 319 319 320 323 324 321 318 318 319 322 323 323 325 325 323 320 319 321 321 321 321 322 321 320 318 317 316 312 309 307 306 307 308 309 309 307 308 306 299 300 305 305 302 300 301 301 300 300 300 297 297 300
234 236 237 228 219 211 207 205 203 202 204 205 208 214 220 225 227 230 233 235 237 241 244 248 251 249 246 249 255 261 271 290 310 317 316 317 320 321 319 317 317 318 320 322 323 325 326 325 322 321 322 323 322 321 323 323 322 319 318 317 314 311 308 305 306 307 307 307 305 305 304 297 298 303 302 299 297 298 300 299 299 296 291 292 299
233 234 236 226 217 212 209 208 204 202 204 207 211 215 220 224 227 229 233 234 236 240 245 248 250 248 244 247 254 260 270 287 305 313 314 315 318 319 318 316 316 316 318 321 324 325 326 327 325 322 323 324 324 323 324 326 324 321 320 319 317 314 312 309 308 306 305 305 302 302 303 299 298 300 301 299 296 296 297 298 297 292 286 290 298
232 233 236 231 219 212 211 212 209 202 202 207 211 216 219 222 226 229 232 234 235 239 244 248 249 247 243 245 252 258 267 282 300 310 311 313 316 317 315 314 315 315 317 321 324 324 326 328 327 324 324 325 324 324 324 325 325 322 320 319 317 315 314 312 311 308 306 305 303 303 303 299 297 297 299 298 296 297 295 294 293 289 288 294 299
234 234 236 236 226 216 211 213 212 205 203 207 212 216 218 221 225 229 231 234 236 238 243 248 249 247 243 245 250 256 264 278 297 307 309 311 314 314 314 313 314 316 317 319 322 325 328 329 327 325 326 325 324 324 324 323 323 321 318 317 316 315 314 314 314 312 310 306 305 307 303 296 295 296 295 293 294 296 293 290 290 288 290 293 296
Height
5878 5878 5878 5879 5879 5880 5881 5881 5882 5882 5883 5883 5884 5884 5884 5885 5884 5884 5884 5883 5882 5882 5882 5881 5881 5881 5880 5879 5878 5877 5876 5876 5875 5874 5873 5872 5871 5869 5868 5867 5866 5865 5865 5864 5863 5863 5862 5862 5862 5861 5861 5861 5861 5860 5860 5859 5859 5859 5858 5858 5857 5857 5856 5856 5856 5856 5855 5855 5855 5855 5854 5854 5854 5853 5853 5853 5852 5852 5852 5851 5851 5850 5850 5850 5849
5877 5877 5877 5878 5879 5879 5880 5881 5881 5882 5883 5883 5884 5884 5884 5884 5884 5884 5883 5883 5882 5882 5881 5881 5881 5880 5879 5878 5877 5877 5876 5875 5874 5874 5873 5872 5871 5869 5868 5867 5866 5865 5864 5864 5863 5863 5862 5862 5862 5861 5861 5861 5860 5860 5860 5859 5859 5859 5858 5858 5857 5857 5856 5856 5856 5856 5856 5855 5855 5855 5855 5854 5854 5854 5854 5853 5853 5853 5852 5852 5851 5851 5850 5850 5850
5876 5876 5876 5877 5878 5879 5880 5880 5881 5882 5882 5883 5883 5884 5884 5884 5884 5884 5883 5882 5881 5881 5881 5881 5881 5880 5879 5878 5877 5876 5875 5875 5874 5873 5872 5872 5870 5869 5868 5867 5866 5865 5865 5864 5863 5863 5862 5862 5862 5861 5861 5861 5860 5860 5859 5859 5859 5858 5858 5858 5857 5857 5857 5856 5856 5856 5856 5856 5855 5855 5855 5855 5855 5854 5854 5854 5853 5853 5853 5852 5852 5851 5851 5850 5850
5875 5875 5876 5877 5878 5879 5879 5880 5881 5881 5882 5882 5883 5883 5883 5883 5883 5883 5883 5882 5881 5881 5880 5880 5880 5880 5879 5878 5877 5876 5875 5874 5874 5873 5872 5871 5870 5869 5868 5867 5866 5865 5865 5864 5863 5863 5862 5862 5862 5861 5861 5860 5860 5859 5859 5859 5859 5858 5858 5858 5858 5857 5857 5857 5856 5856 5856 5856 5856 5856 5855 5855 5855 5855 5854 5854 5854 5853 5853 5853 5852 5852 5851 5851 5850
5874 5875 5875 5876 5877 5878 5879 5880 5880 5881 5881 5882 5882 5883 5883 5883 5883 5883 5882 5881 5881 5880 5880 5880 5880 5879 5879 5877 5876 5876 5875 5874 5873 5873 5872 5871 5870 5869 5868 5867 5866 5866 5865 5864 5864 5863 5863 5862 5862 5861 5861 5860 5860 5859 5859 5859 5859 5859 5858 5858 5858 5857 5857 5857 5857 5856 5856 5856 5856 5856 5856 5855 5855 5855 5854 5854 5854 5854 5853 5853 5852 5852 5852 5851 5851
5873 5874 5875 5876 5877 5877 5878 5879 5879 5880 5881 5882 5882 5882 5882 5882 5882 5882 5882 5881 5881 5880 5880 5880 5880 5879 5878 5877 5876 5876 5875 5874 5874 5873 5872 5871 5870 5869 5868 5867 5866 5866 5865 5864 5864 5863 5863 5862 5862 5862 5861 5861 5860 5859 5859 5859 5859 5859 5859 5858 5858 5858 5857 5857 5857 5856 5856 5856 5856 5856 5856 5855 5855 5854 5854 5854 5854 5854 5854 5853 5853 5852 5852 5851 5851
5872 5873 5874 5875 5876 5877 5877 5878 5879 5880 5880 5881 5881 5882 5882 5882 5882 5882 5882 5881 5880 5880 5880 5880 5880 5879 5878 5877 5876 5876 5875 5874 5874 5873 5872 5871 5870 5869 5868 5867 5866 5866 5865 5864 5864 5863 5863 5863 5862 5862 5862 5861 5860 5859 5859 5859 5859 5859 5859 5858 5858 5858 5857 5857 5857 5857 5856 5855 5856 5856 5855 5855 5855 5854 5854 5854 5854 5854 5854 5853 5853 5852 5852 5851 5851
5871 5872 5873 5874 5875 5876 5877 5877 5878 5879 5880 5880 5881 5881 5881 5882 5881 5881 5881 5881 5880 5880 5880 5880 5880 5879 5878 5877 5876 5875 5875 5874 5874 5873 5872 5871 5870 5869 5868 5867 5866 5866 5865 5865 5864 5864 5863 5863 5862 5862 5862 5862 5861 5860 5859 5859 5859 5859 5859 5858 5858 5857 5857 5857 5856 5856 5856 5855 5855 5855 5855 5855 5854 5853 5853 5854 5854 5854 5853 5853 5853 5852 5852 5851 5851
5870 5871 5872 5873 5874 5875 5876 5877 5878 5878 5879 5880 5880 5881 5881 5881 5881 5881 5881 5880 5880 5879 5880 5879 5879 5879 5878 5877 5876 5876 5875 5875 5874 5873 5872 5871 5870 5869 5867 5867 5866 5866 5865 5865 5864 5864 5863 5863 5863 5863 5863 5862 5861 5860 5860 5859 5859 5859 5859 5858 5857 5857 5856 5856 5855 5855 5855 5854 5854 5854 5854 5854 5853 5853 5853 5853 5853 5853 5853 5853 5853 5852 5852 5851 5851
5869 5870 5871 5872 5873 5874 5875 5876 5877 5878 5879 5879 5880 5880 5881 5881 5881 5880 5880 5880 5879 5879 5879 5879 5879 5879 5878 5877 5877 5876 5876 5875 5874 5873 5872 5871 5870 5869 5868 5867 5866 5866 5865 5865 5864 5864 5863 5863 5863 5863 5863 5863 5862 5861 5860 5860 5860 5859 5858 5857 5857 5856 5856 5855 5854 5854 5854 5853 5854 5853 5853 5853 5853 5853 5853 5853 5853 5853 5853 5853 5852 5852 5852 5851 5851
5868 5869 5870 5871 5872 5873 5875 5875 5877 5877 5878 5879 5880 5880 5880 5880 5880 5880 5880 5879 5879 5879 5879 5879 5879 5879 5878 5878 5877 5876 5876 5875 5874 5873 5872 5871 5870 5869 5868 5867 5866 5866 5866 5865 5865 5864 5863 5863 5862 5862 5862 5863 5862 5862 5861 5860 5860 5859 5858 5857 5857 5856 5856 5855 5855 5854 5853 5853 5853 5853 5853 5853 5853 5852 5852 5852 5852 5852 5852 5852 5852 5852 5852 5851 5851
5867 5868 5869 5871 5872 5872 5873 5874 5876 5877 5878 5879 5879 5879 5880 5880 5880 5880 5879 5879 5879 5879 5879 5879 5879 5879 5878 5878 5877 5877 5876 5875 5874 5873 5872 5871 5870 5869 5868 5867 5866 5866 5866 5865 5865 5864 5863 5862 5862 5862 5862 5862 5862 5861 5861 5860 5860 5859 5858 5857 5857 5857 5856 5856 5855 5854 5853 5852 5853 5853 5853 5853 5853 5852 5852 5852 5852 5852 5852 5852 5852 5852 5852 5851 5851
5867 5868 5869 5870 5871 5872 5873 5874 5875 5876 5877 5878 5879 5879 5879 5879 5879 5879 5879 5879 5879 5879 5879 5879 5879 5879 5878 5878 5877 5877 5876 5876 5875 5874 5873 5872 5870 5869 5868 5867 5867 5866 5866 5866 5865 5864 5863 5862 5861 5861 5861 5860 5861 5861 5860 5860 5859 5859 5858 5857 5857 5857 5856 5856 5855 5854 5853 5853 5853 5853 5853 5853 5852 5852 5852 5852 5852 5852 5852 5852 5852 5851 5851 5851 5851
5866 5867 5868 5869 5870 5871 5872 5873 5874 5875 5876 5877 5878 5878 5879 5879 5879 5879 5879 5879 5879 5879 5879 5879 5879 5878 5878 5878 5878 5877 5877 5876 5875 5874 5873 5872 5871 5870 5869 5868 5867 5867 5866 5866 5865 5864 5863 5862 5861 5860 5860 5860 5860 5860 5859 5859 5859 5858 5858 5858 5857 5856 5855 5855 5854 5854 5853 5853 5853 5853 5853 5853 5852 5852 5852 5852 5852 5852 5852 5851 5851 5851 5851 5851 5850
5865 5866 5868 5869 5870 5871 5872 5872 5873 5874 5875 5876 5877 5878 5878 5878 5878 5878 5878 5879 5878 5878 5878 5878 5878 5878 5878 5878 5878 5877 5877 5876 5875 5874 5873 5872 5871 5870 5869 5868 5868 5867 5867 5866 5866 5865 5864 5862 5861 5860 5860 5860 5859 5859 5859 5859 5858 5858 5858 5858 5856 5856 5855 5855 5855 5854 5854 5853 5853 5853 5853 5853 5852 5852 5852 5852 5852 5852 5851 5851 5851 5850 5850 5850 5850
5864 5865 5867 5868 5869 5870 5871 5872 5872 5873 5874 5875 5876 5877 5877 5877 5877 5877 5878 5878 5878 5878 5878 5878 5878 5878 5878 5878 5878 5878 5878 5877 5875 5874 5874 5873 5872 5871 5870 5869 5868 5868 5867 5866 5866 5865 5864 5862 5861 5861 5860 5860 5860 5859 5859 5858 5858 5858 5859 5857 5856 5856 5856 5855 5855 5855 5855 5854 5854 5853 5853 5853 5852 5852 5852 5852 5852 5851 5851 5851 5851 5850 5850 5850 5849
5863 5864 5866 5867 5868 5869 5870 5872 5872 5873 5873 5874 5876 5876 5877 5877 5877 5877 5877 5877 5877 5877 5877 5878 5878 5878 5878 5878 5879 5879 5878 5876 5875 5875 5874 5873 5872 5871 5871 5870 5869 5868 5868 5867 5866 5865 5864 5863 5862 5861 5860 5860 5860 5859 5859 5858 5858 5858 5858 5856 5856 5857 5856 5855 5854 5855 5855 5854 5854 5854 5853 5853 5852 5852 5852 5852 5851 5851 5851 5851 5850 5850 5849 5849 5849
5862 5863 5864 5866 5867 5868 5870 5871 5871 5872 5872 5873 5875 5876 5876 5876 5877 5877 5877 5877 5877 5877 5877 5878 5878 5879 5879 5879 5879 5878 5878 5876 5876 5875 5874 5873 5872 5872 5871 5870 5869 5869 5868 5867 5866 5865 5864 5863 5862 5861 5860 5860 5859 5859 5858 5858 5858 5859 5858 5856 5856 5856 5856 5855 5854 5854 5855 5855 5854 5854 5853 5853 5852 5852 5852 5852 5851 5851 5851 5850 5849 5849 5849 5848 5848
5860 5862 5863 5865 5866 5867 5869 5870 5871 5871 5872 5873 5874 5875 5875 5875 5876 5876 5877 5876 5876 5876 5877 5878 5879 5879 5879 5879 5879 5878 5877 5877 5876 5875 5874 5873 5873 5872 5871 5870 5870 5869 5868 5867 5866 5865 5864 5863 5863 5862 5861 5860 5859 5858 5858 5857 5858 5859 5857 5855 5856 5856 5856 5856 5855 5855 5855 5854 5854 5853 5853 5853 5852 5851 5851 5851 5851 5850 5850 5850 5849 5848 5848 5848 5847
5858 5860 5862 5864 5865 5866 5868 5869 5870 5871 5871 5872 5873 5874 5875 5875 5875 5876 5876 5876 5876 5876 5877 5878 5879 5879 5880 5879 5878 5878 5877 5877 5876 5875 5874 5874 5873 5872 5872 5871 5870 5869 5868 5867 5866 5865 5864 5863 5863 5862 5861 5860 5859 5858 5857 5857 5858 5858 5856 5855 5855 5855 5855 5855 5855 5854 5854 5854 5853 5853 5853 5852 5851 5851 5850 5851 5850 5850 5849 5849 5848 5848 5847 5847 5847
5857 5859 5861 5862 5864 5865 5866 5868 5869 5870 5870 5871 5872 5874 5874 5874 5875 5875 5875 5876 5876 5876 5878 5878 5879 5879 5879 5879 5878 5878 5877 5877 5876 5875 5875 5874 5873 5873 5872 5871 5870 5869 5868 5867 5866 5865 5864 5863 5862 5862 5861 5860 5859 5858 5857 5857 5858 5857 5855 5856 5855 5855 5856 5855 5854 5853 5853 5853 5853 5853 5852 5851 5851 5850 5850 5850 5849 5849 5849 5848 5847 5847 5847 5846 5846
5855 5857 5859 5861 5863 5864 5865 5867 5868 5868 5869 5870 5872 5873 5873 5873 5874 5874 5875 5875 5876 5877 5878 5878 5879 5879 5879 5878 5878 5878 5877 5877 5876 5876 5875 5874 5874 5873 5872 5871 5870 5869 5868 5867 5866 5865 5864 5863 5862 5861 5861 5860 5859 5857 5856 5857 5858 5856 5856 5855 5855 5855 5855 5855 5854 5853 5852 5852 5852 5852 5851 5850 5850 5849 5849 5849 5849 5848 5848 5847 5846 5846 5846 5845 5845
5853 5855 5858 5859 5861 5862 5864 5865 5866 5867 5868 5869 5870 5872 5872 5873 5873 5874 5874 5875 5876 5877 5878 5878 5878 5879 5878 5878 5878 5878 5877 5877 5876 5876 5875 5875 5874 5873 5873 5872 5871 5870 5869 5867 5866 5865 5863 5862 5861 5861 5860 5859 5858 5856 5856 5857 5857 5856 5855 5855 5854 5855 5855 5854 5853 5852 5851 5851 5851 5851 5850 5849 5849 5848 5848 5848 5848 5847 5847 5846 5846 5845 5845 5844 5844
5850 5852 5855 5857 5859 5860 5862 5863 5865 5866 5867 5868 5869 5870 5871 5872 5872 5873 5873 5874 5876 5877 5877 5877 5878 5878 5878 5878 5878 5877 5877 5876 5876 5876 5876 5875 5874 5873 5873 5872 5871 5870 5869 5868 5866 5865 5863 5862 5861 5860 5860 5858 5856 5855 5855 5857 5857 5856 5854 5854 5854 5854 5854 5854 5853 5852 5851 5850 5850 5850 5849 5848 5848 5847 5847 5847 5847 5846 5846 5845 5845 5845 5844 5843 5843
5848 5851 5853 5854 5856 5858 5859 5861 5862 5864 5865 5867 5868 5869 5870 5871 5872 5872 5873 5874 5875 5876 5877 5877 5877 5878 5878 5877 5877 5877 5876 5876 5876 5876 5876 5875 5874 5873 5873 5872 5871 5870 5869 5868 5866 5865 5863 5862 5861 5860 5859 5857 5854 5852 5855 5857 5857 5855 5854 5854 5854 5854 5854 5854 5853 5851 5850 5850 5849 5849 5848 5847 5847 5846 5846 5846 5846 5846 5846 5845 5844 5844 5843 5843 5842
5846 5849 5851 5852 5854 5856 5857 5858 5860 5861 5863 5865 5866 5867 5869 5870 5870 5871 5872 5873 5875 5875 5876 5877 5877 5877 5877 5877 5876 5876 5876 5876 5876 5876 5876 5875 5874 5873 5873 5872 5871 5870 5869 5867 5866 5864 5863 5862 5860 5860 5858 5856 5853 5849 5853 5855 5854 5854 5854 5854 5854 5854 5853 5853 5852 5850 5849 5849 5848 5847 5847 5846 5846 5845 5845 5845 5845 5845 5845 5844 5844 5843 5842 5842 5841
5843 5846 5848 5850 5852 5854 5855 5856 5857 5858 5860 5862 5864 5865 5867 5868 5869 5870 5871 5873 5874 5875 5876 5876 5877 5877 5876 5876 5875 5876 5876 5876 5876 5876 5876 5875 5874 5873 5872 5871 5870 5869 5868 5867 5866 5864 5863 5861 5860 5859 5858 5856 5851 5848 5851 5853 5852 5853 5853 5852 5853 5853 5852 5852 5851 5849 5848 5848 5847 5846 5846 5846 5845 5845 5844 5844 5844 5844 5844 5843 5843 5843 5842 5841 5840
5840 5843 5845 5848 5850 5851 5852 5853 5855 5856 5857 5859 5861 5862 5864 5866 5867 5869 5871 5872 5873 5874 5875 5876 5876 5876 5875 5874 5874 5875 5876 5876 5876 5876 5876 5875 5874 5873 5872 5871 5870 5869 5868 5866 5865 5864 5862 5861 5860 5859 5857 5855 5850 5848 5851 5852 5853 5853 5851 5851 5852 5852 5852 5851 5850 5849 5848 5847 5846 5845 5845 5845 5845 5844 5843 5843 5843 5843 5843 5842 5842 5842 5841 5840 5839
5836 5840 5843 5846 5847 5849 5849 5851 5852 5854 5855 5857 5859 5860 5862 5864 5866 5868 5870 5871 5872 5874 5875 5876 5876 5875 5874 5874 5874 5875 5875 5876 5876 5876 5875 5875 5874 5873 5872 5871 5870 5869 5867 5866 5864 5863 5861 5860 5859 5857 5856 5853 5849 5848 5851 5851 5853 5853 5851 5850 5851 5851 5851 5851 5850 5849 5847 5846 5845 5844 5844 5844 5844 5843 5843 5842 5842 5842 5842 5842 5841 5841 5840 5839 5838
5833 5837 5840 5842 5844 5846 5847 5848 5850 5852 5854 5856 5857 5858 5860 5862 5864 5866 5869 5870 5872 5873 5874 5875 5875 5874 5873 5873 5874 5874 5875 5875 5875 5875 5875 5875 5874 5873 5872 5871 5870 5868 5867 5865 5863 5862 5860 5859 5858 5857 5855 5852 5848 5849 5850 5851 5852 5852 5851 5850 5850 5850 5850 5850 5849 5848 5847 5846 5845 5844 5843 5843 5843 5842 5842 5841 5841 5840 5841 5841 5840 5840 5839 5838 5837
5831 5835 5836 5838 5842 5843 5844 5846 5848 5850 5851 5853 5855 5857 5859 5861 5863 5865 5867 5869 5871 5872 5873 5873 5873 5873 5873 5873 5873 5874 5874 5875 5875 5875 5874 5874 5874 5873 5871 5870 5869 5868 5866 5864 5863 5861 5860 5858 5857 5856 5854 5851 5849 5850 5850 5851 5852 5851 5851 5850 5849 5848 5848 5848 5848 5847 5846 5845 5844 5843 5842 5842 5841 5841 5841 5841 5840 5839 5839 5839 5839 5838 5838 5837 5836
5830 5832 5833 5835 5839 5840 5842 5844 5846 5848 5849 5851 5854 5856 5858 5859 5862 5864 5866 5868 5870 5871 5872 5872 5872 5872 5872 5873 5873 5873 5873 5874 5874 5874 5874 5873 5873 5872 5871 5870 5868 5867 5865 5864 5862 5861 5859 5858 5856 5855 5854 5850 5850 5851 5850 5850 5850 5850 5850 5849 5848 5847 5847 5848 5847 5846 5845 5844 5843 5842 5841 5841 5840 5840 5840 5839 5839 5839 5838 5837 5837 5836 5836 5836 5835
5827 5829 5830 5833 5836 5838 5841 5843 5845 5847 5849 5851 5853 5855 5857 5859 5861 5863 5865 5867 5868 5869 5870 5870 5871 5872 5872 5872 5872 5872 5872 5873 5873 5873 5873 5872 5872 5871 5870 5869 5868 5866 5865 5863 5862 5861 5859 5857 5856 5855 5854 5851 5850 5851 5850 5849 5849 5849 5848 5847 5847 5847 5847 5846 5846 5845 5844 5843 5842 5841 5840 5840 5840 5839 5839 5838 5838 5838 5837 5836 5836 5835 5834 5834 5833
5825 5826 5828 5832 5836 5838 5840 5841 5843 5846 5849 5851 5853 5855 5857 5858 5860 5862 5864 5865 5866 5867 5869 5869 5869 5870 5871 5871 5871 5871 5872 5872 5872 5872 5872 5872 5871 5870 5869 5868 5867 5865 5864 5863 5861 5860 5858 5857 5856 5855 5854 5851 5850 5851 5852 5851 5849 5848 5847 5847 5847 5847 5846 5845 5844 5843 5842 5841 5841 5840 5839 5839 5839 5838 5838 5837 5836 5836 5836 5835 5834 5834 5833 5832 5832
5822 5824 5827 5832 5835 5837 5838 5840 5842 5845 5848 5851 5852 5855 5856 5857 5860 5861 5862 5863 5864 5866 5867 5868 5868 5869 5869 5870 5870 5871 5871 5871 5872 5872 5872 5871 5870 5869 5868 5867 5866 5865 5863 5862 5861 5859 5858 5856 5855 5855 5854 5852 5850 5851 5852 5852 5850 5848 5847 5847 5846 5845 5844 5843 5843 5842 5841 5840 5840 5839 5838 5837 5838 5838 5837 5836 5835 5835 5834 5833 5833 5832 5831 5831 5830
5820 5822 5826 5831 5833 5834 5836 5838 5840 5843 5846 5850 5852 5853 5855 5857 5859 5860 5861 5862 5863 5864 5865 5866 5867 5867 5868 5869 5870 5870 5870 5870 5871 5871 5871 5871 5869 5868 5867 5866 5865 5864 5863 5861 5860 5859 5857 5856 5854 5855 5854 5852 5850 5851 5852 5852 5850 5849 5847 5846 5844 5843 5843 5842 5841 5840 5839 5839 5839 5838 5837 5835 5835 5836 5835 5834 5834 5833 5833 5832 5831 5830 5830 5829 5829
5819 5821 5825 5829 5831 5832 5835 5836 5837 5840 5844 5848 5850 5852 5854 5856 5857 5858 5860 5861 5862 5863 5864 5864 5865 5866 5867 5868 5869 5869 5869 5870 5870 5870 5870 5870 5868 5867 5866 5865 5865 5863 5862 5861 5860 5858 5856 5855 5854 5854 5854 5852 5851 5851 5851 5850 5849 5848 5847 5845 5844 5843 5841 5840 5839 5838 5837 5836 5836 5836 5836 5835 5834 5834 5833 5833 5832 5832 5831 5831 5830 5829 5829 5828 5827
5817 5820 5824 5827 5828 5830 5832 5834 5835 5838 5842 5845 5847 5850 5852 5854 5856 5857 5858 5859 5860 5862 5862 5863 5864 5865 5866 5867 5868 5868 5869 5869 5869 5869 5869 5869 5867 5866 5865 5864 5864 5862 5861 5860 5859 5858 5856 5854 5853 5853 5854 5852 5851 5850 5848 5846 5846 5845 5844 5844 5843 5842 5840 5838 5837 5836 5835 5834 5834 5833 5833 5834 5833 5832 5831 5831 5830 5830 5830 5829 5829 5828 5827 5826 5825
5816 5818 5821 5824 5825 5827 5829 5832 5834 5836 5840 5843 5845 5848 5851 5853 5854 5856 5857 5858 5859 5860 5861 5862 5863 5864 5865 5866 5867 5867 5868 5868 5868 5868 5867 5867 5866 5865 5864 5863 5862 5861 5860 5859 5858 5857 5855 5854 5853 5852 5853 5852 5850 5849 5846 5844 5843 5842 5841 5840 5840 5840 5838 5836 5835 5835 5834 5833 5832 5831 5831 5832 5831 5830 5829 5829 5829 5829 5828 5828 5827 5827 5826 5825 5824
5814 5816 5819 5821 5822 5824 5826 5829 5832 5835 5838 5841 5843 5846 5849 5851 5853 5854 5855 5857 5858 5858 5859 5860 5862 5863 5864 5865 5866 5866 5867 5867 5867 5867 5866 5865 5864 5863 5862 5861 5861 5860 5859 5858 5857 5856 5855 5853 5852 5851 5852 5851 5850 5848 5845 5843 5842 5841 5840 5839 5838 5837 5836 5835 5834 5834 5833 5832 5831 5831 5829 5829 5829 5828 5827 5827 5827 5827 5826 5826 5825 5825 5825 5824 5822
5811 5814 5816 5819 5820 5822 5824 5827 5830 5833 5836 5839 5841 5845 5847 5849 5851 5852 5854 5855 5856 5857 5858 5859 5860 5862 5863 5864 5865 5865 5865 5866 5866 5865 5865 5864 5863 5862 5861 5860 5860 5859 5858 5857 5856 5855 5854 5852 5851 5851 5851 5850 5849 5847 5845 5844 5842 5840 5839 5838 5837 5836 5834 5833 5832 5832 5831 5830 5829 5829 5828 5826 5826 5826 5825 5825 5825 5824 5824 5824 5824 5823 5823 5822 5821
5808 5811 5812 5815 5818 5819 5821 5825 5828 5832 5834 5836 5839 5842 5844 5846 5848 5850 5851 5853 5854 5855 5856 5858 5859 5860 5861 5863 5864 5864 5864 5865 5864 5864 5863 5862 5861 5860 5859 5859 5858 5858 5857 5856 5855 5854 5853 5852 5850 5850 5850 5849 5848 5846 5845 5844 5842 5840 5838 5837 5836 5835 5834 5832 5831 5831 5830 5828 5827 5827 5826 5824 5823 5823 5823 5823 5822 5822 5822 5822 5822 5821 5821 5820 5819
5803 5806 5808 5811 5813 5815 5818 5822 5826 5829 5832 5834 5836 5839 5842 5844 5846 5848 5850 5851 5853 5854 5855 5856 5858 5859 5860 5861 5862 5863 5863 5863 5863 5862 5861 5861 5860 5859 5858 5857 5857 5856 5856 5855 5854 5853 5852 5851 5850 5849 5849 5848 5847 5845 5844 5843 5842 5839 5838 5836 5835 5834 5833 5831 5830 5829 5829 5827 5825 5825 5823 5822 5821 5821 5821 5820 5820 5820 5820 5820 5820 5820 5820 5819 5817
5799 5802 5804 5807 5810 5812 5816 5819 5823 5826 5829 5832 5834 5837 5839 5841 5843 5846 5848 5850 5851 5852 5853 5855 5856 5857 5859 5860 5861 5861 5862 5862 5861 5861 5860 5859 5858 5857 5857 5856 5856 5855 5855 5854 5853 5852 5851 5850 5849 5848 5848 5847 5845 5844 5842 5841 5840 5838 5837 5836 5834 5832 5831 5830 5828 5827 5827 5825 5824 5822 5821 5819 5818 5818 5818 5818 5818 5818 5818 5818 5818 5818 5818 5818 5816
5796 5799 5802 5804 5808 5811 5813 5816 5819 5822 5825 5828 5832 5834 5837 5839 5842 5844 5846 5848 5849 5850 5852 5853 5855 5856 5857 5858 5859 5860 5860 5860 5860 5859 5858 5858 5857 5856 5855 5854 5854 5854 5853 5852 5852 5851 5850 5849 5847 5846 5847 5846 5844 5843 5841 5839 5838 5837 5835 5834 5832 5831 5830 5828 5826 5825 5824 5823 5821 5820 5819 5817 5816 5816 5816 5817 5816 5816 5816 5816 5816 5816 5816 5816 5815
5793 5797 5800 5801 5804 5808 5811 5813 5816 5819 5822 5825 5828 5831 5834 5837 5839 5842 5844 5845 5847 5848 5850 5852 5853 5854 5855 5856 5857 5858 5858 5859 5858 5858 5857 5856 5856 5855 5854 5853 5852 5852 5852 5851 5851 5850 5849 5848 5846 5845 5845 5845 5843 5842 5840 5838 5836 5834 5833 5833 5831 5829 5828 5826 5825 5823 5821 5819 5818 5817 5816 5815 5814 5814 5814 5815 5815 5815 5815 5814 5814 5814 5814 5813 5813
5789 5793 5797 5798 5800 5804 5807 5810 5813 5817 5820 5822 5825 5828 5831 5834 5837 5839 5841 5843 5845 5847 5848 5850 5851 5853 5854 5855 5855 5856 5857 5857 5857 5856 5855 5854 5854 5853 5852 5852 5851 5851 5851 5850 5850 5849 5848 5846 5844 5843 5843 5843 5842 5841 5839 5837 5835 5832 5831 5830 5829 5827 5826 5824 5823 5821 5819 5817 5816 5815 5815 5814 5812 5812 5812 5813 5813 5813 5813 5813 5813 5813 5812 5811 5811
5786 5790 5794 5795 5797 5801 5803 5806 5809 5813 5817 5819 5822 5826 5829 5832 5834 5836 5838 5840 5843 5844 5846 5848 5850 5851 5852 5853 5854 5854 5855 5856 5855 5855 5854 5853 5852 5851 5851 5850 5850 5849 5850 5849 5849 5848 5847 5845 5843 5842 5841 5841 5840 5839 5838 5836 5833 5831 5829 5827 5826 5825 5824 5823 5821 5819 5817 5816 5814 5813 5813 5812 5811 5810 5810 5811 5811 5811 5811 5811 5811 5811 5810 5809 5809
5783 5787 5790 5792 5794 5797 5800 5802 5804 5808 5813 5816 5819 5822 5826 5829 5831 5833 5836 5838 5840 5842 5844 5846 5847 5849 5850 5851 5852 5853 5854 5854 5854 5853 5852 5851 5850 5849 5849 5848 5848 5848 5848 5848 5848 5847 5846 5844 5842 5840 5839 5838 5837 5836 5835 5834 5832 5829 5827 5825 5823 5822 5822 5821 5819 5817 5815 5814 5813 5811 5811 5809 5808 5808 5808 5808 5809 5809 5809 5809 5809 5808 5807 5807 5807
5779 5783 5787 5789 5791 5793 5797 5800 5802 5805 5809 5813 5816 5819 5822 5826 5828 5830 5833 5835 5838 5840 5841 5843 5845 5847 5848 5850 5851 5851 5852 5853 5853 5852 5851 5849 5848 5847 5846 5846 5846 5846 5847 5847 5847 5846 5844 5843 5841 5839 5837 5835 5834 5833 5832 5831 5831 5829 5826 5823 5821 5820 5819 5818 5816 5815 5813 5812 5810 5809 5808 5807 5806 5806 5806 5806 5806 5807 5807 5807 5806 5806 5806 5805 5805
5774 5779 5782 5786 5788 5790 5794 5797 5800 5802 5806 5810 5814 5816 5819 5822 5825 5827 5830 5833 5835 5837 5839 5840 5842 5844 5846 5848 5849 5850 5851 5851 5851 5851 5849 5848 5846 5845 5844 5844 5844 5845 5845 5846 5845 5844 5843 5841 5840 5838 5836 5834 5832 5830 5829 5828 5827 5828 5826 5823 5821 5818 5817 5815 5813 5812 5810 5809 5808 5806 5806 5805 5804 5804 5803 5803 5804 5805 5805 5804 5804 5804 5804 5804 5803